This demonstration page uses our WeatherBlox Daily Observations layout. Learn more.

Hourly Observations for April 11, 2019

Temp ( °F °C ) Dew Point ( °F °C ) Humidity (%) Winds ( mph kmh ) Pressure ( in mb ) Visibility ( mi km ) Precip ( " mm )
12:15 am 00:15 Cloudy 32 0 32 0 100 100 N 22 35 29.55 1001 10 16.0934 0.01 0.254
12:35 am 00:35 Cloudy 32 -0.1 32 -0.2 99 99 N 16 26 29.54 1000 7 11.26538 0.02 0.508
12:55 am 00:55 Cloudy 31 -0.3 31 -0.3 100 100 N 21 33 29.55 1001 10 16.0934 0.02 0.508
1:15 am 01:15 Cloudy 31 -0.5 31 -0.5 100 100 N 16 26 29.54 1000 10 16.0934 0 0
1:35 am 01:35 Cloudy 31 -0.5 31 -0.6 99 99 N 17 28 29.53 1000 7 11.26538 0 0
1:55 am 01:55 Cloudy 31 -0.5 31 -0.6 99 99 NNW 16 26 29.54 1000 10 16.0934 0.01 0.254
2:15 am 02:15 Cloudy with Light Snow 31 -0.7 30 -1 98 98 NNW 18 30 29.54 1000 7 11.26538 0 0
2:35 am 02:35 Cloudy with Light Wintry Mix 30 -1 30 -1 100 100 NNW 18 30 29.51 999 2 3.21868 0 0
2:55 am 02:55 Cloudy 30 -1 30 -1 100 100 N 18 30 29.51 999 2 3.21868 0.02 0.508
3:15 am 03:15 Cloudy with Light Snow 30 -1.3 30 -1.3 100 100 NNW 15 24 29.54 1000 2 3.21868 0.01 0.254
3:35 am 03:35 Cloudy with Light Snow 29 -1.6 29 -1.6 100 100 NNW 18 30 29.51 999 3 4.82802 0.01 0.254
3:55 am 03:55 Cloudy with Light Snow 29 -1.8 28 -2 99 99 NNW 17 28 29.51 999 2 3.21868 0.04 1.016
4:15 am 04:15 Cloudy with Light Wintry Mix 28 -2 28 -2 100 100 NNW 15 24 29.51 999 3 4.82802 0.02 0.508
4:35 am 04:35 Cloudy with Light Snow 28 -2 28 -2 100 100 NW 15 24 29.51 999 2 3.21868 0.06 1.524
4:55 am 04:55 Cloudy with Light Snow 28 -2 28 -2 100 100 NW 14 22 29.51 999 1.5 2.41401 0.08 2.032
5:15 am 05:15 Cloudy with Light Snow 28 -2.1 28 -2.1 100 100 NW 17 28 29.5 999 1 1.60934 0.02 0.508
5:35 am 05:35 Cloudy with Light Snow 28 -2.1 28 -2.1 100 100 NNW 17 28 29.5 999 1.25 2.011675 0.03 0.762
5:55 am 05:55 Cloudy with Light Snow 28 -2.1 28 -2.1 100 100 NNW 16 26 29.5 999 1.25 2.011675 0.03 0.762
6:15 am 06:15 Cloudy with Light Snow 28 -2 28 -2 100 100 NW 18 30 29.5 999 1.25 2.011675 0 0
6:35 am 06:35 Cloudy with Light Snow 28 -2 28 -2 100 100 NW 14 22 29.5 999 2 3.21868 0.01 0.254
6:55 am 06:55 Cloudy with Light Snow 28 -2 28 -2 100 100 NW 16 26 29.49 999 2 3.21868 0.01 0.254
7:15 am 07:15 Cloudy with Light Snow 28 -2 28 -2 100 100 NW 15 24 29.49 999 1.25 2.011675 0.01 0.254
7:35 am 07:35 Cloudy with Light Snow 28 -2 28 -2 100 100 NW 16 26 29.49 999 1.75 2.816345 0.01 0.254
7:55 am 07:55 Cloudy with Light Snow 28 -2 28 -2 100 100 NNW 15 24 29.49 999 2.5 4.02335 0.01 0.254
8:15 am 08:15 Cloudy with Light Snow 29 -1.8 28 -2.1 98 98 NW 15 24 29.49 999 4 6.43736 0.01 0.254
8:35 am 08:35 Cloudy with Light Snow 29 -1.7 28 -2.1 97 97 NW 16 26 29.49 999 4 6.43736 0.02 0.508
8:55 am 08:55 Cloudy with Light Snow 28 -2 28 -2.5 96 96 NNW 18 30 29.49 999 5 8.0467 0.02 0.508
9:15 am 09:15 Cloudy with Light Snow 28 -2 28 -2.5 96 96 NNW 16 26 29.49 999 5 8.0467 0.01 0.254
9:35 am 09:35 Windy with Snow Likely 28 -2 27 -2.6 96 96 NW 20 31 29.49 999 2.5 4.02335 0.01 0.254
9:55 am 09:55 Windy with Snow Likely 28 -2 27 -2.8 94 94 NNW 22 35 29.49 999 7 11.26538 0.01 0.254
10:15 am 10:15 Windy with Snow Likely 28 -2 27 -3 93 93 NW 20 31 29.5 999 7 11.26538 0 0
10:35 am 10:35 Cloudy with Light Snow 28 -2 27 -3 93 93 NW 18 30 29.5 999 5 8.0467 0.01 0.254
10:55 am 10:55 Windy with Snow Likely 28 -2.1 26 -3.1 93 93 NW 22 35 29.5 999 2.5 4.02335 0.01 0.254
11:15 am 11:15 Windy with Snow Likely 28 -2 27 -3 93 93 NW 21 33 29.52 1000 2.5 4.02335 0 0
11:35 am 11:35 Windy with Snow Likely 28 -2 26 -3.2 92 92 NW 20 31 29.52 1000 5 8.0467 0 0
11:55 am 11:55 Cloudy 29 -1.9 26 -3.3 90 90 NW 23 37 29.54 1000 7 11.26538 0 0
12:15 pm 12:15 Cloudy with Mist and Fog 28 -2 26 -3.3 91 91 NW 24 39 29.54 1000 3 4.82802 0 0
12:35 pm 12:35 Cloudy with Mist and Fog 29 -1.7 26 -3.4 88 88 NW 21 33 29.54 1000 4 6.43736 0.01 0.254
12:55 pm 12:55 Windy with Snow Likely 29 -1.7 26 -3.3 89 89 NW 25 41 29.54 1000 3 4.82802 0.01 0.254
1:15 pm 13:15 Windy with Snow Likely 29 -1.8 26 -3.6 88 88 NW 24 39 29.55 1001 5 8.0467 0 0
1:35 pm 13:35 Cloudy with Mist and Fog 29 -1.8 25 -3.7 87 87 NW 24 39 29.55 1001 5 8.0467 0 0
1:55 pm 13:55 Cloudy with Mist and Fog 29 -1.6 25 -4 84 84 NW 23 37 29.56 1001 4 6.43736 0 0
2:15 pm 14:15 Cloudy with Mist and Fog 29 -1.5 25 -3.8 85 85 NW 26 43 29.56 1001 5 8.0467 0 0
2:35 pm 14:35 Cloudy 30 -1.2 25 -3.9 82 82 NW 25 41 29.56 1001 7 11.26538 0 0
2:55 pm 14:55 Cloudy with Mist and Fog 30 -1.3 25 -4 82 82 NW 24 39 29.58 1002 4 6.43736 0 0
3:15 pm 15:15 Cloudy with Haze 29 -1.7 24 -4.3 83 83 NW 29 46 29.59 1002 5 8.0467 0 0
3:35 pm 15:35 Cloudy with Mist and Fog 28 -2 24 -4.6 83 83 NW 28 44 29.59 1002 5 8.0467 0 0
3:55 pm 15:55 Cloudy with Mist and Fog 29 -1.5 25 -3.9 84 84 NW 25 41 29.6 1002 5 8.0467 0 0
4:15 pm 16:15 Cloudy 30 -1.1 25 -3.9 82 82 NW 23 37 29.6 1002 10 16.0934 0 0
4:35 pm 16:35 Cloudy 30 -1.2 25 -3.9 82 82 NW 25 41 29.61 1003 10 16.0934 0 0
4:55 pm 16:55 Cloudy 31 -0.8 25 -3.9 80 80 NW 29 46 29.62 1003 10 16.0934 0 0
5:15 pm 17:15 Cloudy 29 -1.6 24 -4.3 82 82 NW 25 41 29.65 1004 7 11.26538 0 0
5:35 pm 17:35 Mostly Cloudy 29 -1.7 24 -4.3 83 83 NW 25 41 29.66 1004 10 16.0934 0 0
5:55 pm 17:55 Mostly Cloudy 29 -1.9 24 -4.5 83 83 NW 21 33 29.67 1005 10 16.0934 0 0
6:15 pm 18:15 Cloudy with Haze 29 -1.8 24 -4.4 83 83 NW 25 41 29.68 1005 5 8.0467 0 0
6:35 pm 18:35 Windy with Snow Likely 28 -2 24 -4.4 84 84 NW 23 37 29.7 1006 4 6.43736 0 0
6:55 pm 18:55 Cloudy with Mist and Fog 28 -2.1 24 -4.4 84 84 NW 24 39 29.71 1006 4 6.43736 0 0
7:15 pm 19:15 Cloudy 28 -2.1 24 -4.7 83 83 NW 25 41 29.72 1007 7 11.26538 0 0
7:35 pm 19:35 Cloudy 28 -2.1 24 -4.6 83 83 WNW 18 30 29.73 1007 10 16.0934 0 0
7:55 pm 19:55 Cloudy 28 -2.2 24 -4.6 84 84 WNW 24 39 29.73 1007 7 11.26538 0 0
8:15 pm 20:15 Cloudy with Light Snow 28 -2.3 24 -4.3 86 86 WNW 18 30 29.75 1007 7 11.26538 0 0
8:35 pm 20:35 Windy with Snow Likely 28 -2.5 25 -3.9 90 90 NW 24 39 29.75 1007 5 8.0467 0 0
8:55 pm 20:55 Cloudy 27 -2.8 24 -4.3 90 90 NW 18 30 29.76 1008 7 11.26538 0 0
9:15 pm 21:15 Partly Cloudy 26 -3.2 24 -4.6 90 90 WNW 17 28 29.78 1009 10 16.0934 0 0
9:35 pm 21:35 Clear 27 -2.9 22 -5.6 82 82 WNW 21 33 29.78 1009 10 16.0934 0 0
9:55 pm 21:55 Clear 27 -2.8 21 -6 79 79 WNW 21 33 29.79 1009 10 16.0934 0 0
10:15 pm 22:15 Clear 27 -3 21 -5.9 81 81 WNW 20 31 29.79 1009 10 16.0934 0 0
10:35 pm 22:35 Clear 27 -3 21 -6 80 80 WNW 17 28 29.79 1009 10 16.0934 0 0
10:55 pm 22:55 Clear 27 -3 21 -6.2 79 79 WNW 21 33 29.8 1009 10 16.0934 0 0
11:15 pm 23:15 Clear 26 -3.2 20 -6.5 78 78 WNW 20 31 29.8 1009 10 16.0934 0 0
11:35 pm 23:35 Clear 26 -3.5 20 -6.5 80 80 WNW 18 30 29.8 1009 10 16.0934 0 0
11:55 pm 23:55 Clear 26 -3.5 20 -6.5 80 80 WNW 18 30 29.8 1009 10 16.0934 0 0

Powered by AerisWeather